Hourly Data Report for September 15, 2017

All times are specified in Local Standard Time (LST). Add 1 hour to adjust for Daylight Saving Time where and when it is observed.

SUSSEX FOUR CORNERS
NEW BRUNSWICK

45°44'30.048" N
65°31'44.039" W
47.00 m
8105210
71656
ASF

Download Data

Hourly Data (September 2017)
Hourly Data Report for September 15, 2017
Temp Definition
°C
Dew Point Temp Definition
°C
Rel Hum Definition
%
Wind Dir Definition
10's deg

Wind Spd Definition
km/h
Visibility Definition
km
Stn Press Definition
kPa
Hmdx Definition


Wind Chill Definition


Weather Definition


TIME
00:00 14.6 13.9 96 26 10   100.64     LegendNANA
01:00 14.3 13.8 97 6 3   100.74     LegendNANA
02:00 13.6 13.2 97 36 2   100.82     LegendNANA
03:00 13.0 12.8 98 1 5   100.84     LegendNANA
04:00 12.1 11.9 99 0 1   100.88     LegendNANA
05:00 12.0 11.9 99 3 5   100.95     LegendNANA
06:00 11.5 11.3 99 33 4   101.06     LegendNANA
07:00 11.8 11.6 98 36 5   101.14     LegendNANA
08:00 13.8 12.9 94 4 8   101.23     LegendNANA
09:00 15.9 14.1 89 3 8   101.29     LegendNANA
10:00 18.9 14.2 74 3 8   101.29     LegendNANA
11:00 20.9 13.9 64 2 9   101.35     LegendNANA
12:00 22.1 13.9 60 3 6   101.30 25   LegendNANA
13:00 24.0 12.5 49 4 3   101.26 27   LegendNANA
14:00 24.7 13.3 49 2 3   101.22 28   LegendNANA
15:00 25.1 13.6 49 4 2   101.21 28   LegendNANA
16:00 24.6 14.4 53 35 3   101.22 28   LegendNANA
17:00 24.8 15.3 56 1 2   101.23 29   LegendNANA
18:00 22.4 16.0 67 18 7   101.27 27   LegendNANA
19:00 19.9 15.2 74 19 5   101.31     LegendNANA
20:00 18.5 15.2 81   0   101.33     LegendNANA
21:00 16.3 14.6 90 20 2   101.36     LegendNANA
22:00 15.7 14.1 90 19 2   101.36     LegendNANA
23:00 14.7 13.8 94 26 7   101.39     LegendNANA

Notes on Data Quality.

Legend

  • E = Estimated
  • M = Missing
  • NA = Not Available
  • ‡ = Partner data that is not subject to review by the National Climate Archives
Date modified: